Tracking 18850 objects as of 22-Nov-2017
HD Live streaming from Space Station
objects crossing your sky now

FENGYUN 1C DEB

Track FENGYUN 1C DEB now!
10-day predictions


NORAD ID: 30851
Int'l Code: 1999-025AWM
Perigee: 731.6 km
Apogee: 827.5 km
Inclination: 98.5 °
Period: 100.3 minutes
Semi major axis: 7150 km
RCS: 0.0089 m2 (small)
Launch date: May 10, 1999
Source: People's Republic of China (PRC)
Launch site: Taiyaun Space Center, China (TSC)

Note: This is SATELLITE DEBRIS
aabbcc
Your satellite tracking list
Your tracking list is empty




NASA's NSSDC Master Catalog

Two Line Element Set (TLE):
1 30851U 99025AWM 17323.72589290 +.00001686 +00000-0 +58254-3 0  9998
2 30851 098.5240 236.9603 0067052 217.3890 142.2620 14.35809695556650
Source of the keplerian elements: AFSPC